TimeCDT,TemperatureF,Dew PointF,Humidity,Sea Level PressureIn,VisibilityMPH,Wind Direction,Wind SpeedMPH,Gust SpeedMPH,PrecipitationIn,Events,Conditions,WindDirDegrees,DateUTC
12:04 AM,82.4,71.6,70,29.90,5.0,South,9.2,-,0.00,Rain-Thunderstorm,Light Thunderstorms and Rain,180,2013-05-10 05:04:00
12:32 AM,78.8,71.6,78,29.84,6.0,SSE,16.1,-,0.00,,Haze,150,2013-05-10 05:32:00
12:56 AM,77.9,70.9,79,29.81,6.0,SSW,5.8,-,0.00,,Haze,200,2013-05-10 05:56:00
1:56 AM,77.9,72.0,82,29.81,5.0,SE,5.8,-,N/A,,Haze,140,2013-05-10 06:56:00
2:56 AM,75.9,70.9,84,29.80,6.0,ENE,9.2,-,N/A,,Haze,60,2013-05-10 07:56:00
3:56 AM,73.9,70.9,90,29.81,5.0,East,9.2,-,N/A,,Clear,90,2013-05-10 08:56:00
4:16 AM,73.4,71.6,94,29.84,4.0,East,6.9,-,N/A,,Partly Cloudy,90,2013-05-10 09:16:00
4:56 AM,72.9,70.9,93,29.81,3.0,East,3.5,-,N/A,,Partly Cloudy,80,2013-05-10 09:56:00
5:45 AM,73.4,71.6,94,29.85,4.0,ESE,5.8,-,N/A,,Mostly Cloudy,120,2013-05-10 10:45:00
5:56 AM,72.9,70.9,93,29.81,4.0,ESE,6.9,-,N/A,,Scattered Clouds,110,2013-05-10 10:56:00
6:05 AM,73.4,71.6,94,29.84,4.0,ESE,6.9,-,N/A,,Mostly Cloudy,110,2013-05-10 11:05:00
6:37 AM,73.4,71.6,94,29.85,4.0,ESE,5.8,-,N/A,,Overcast,110,2013-05-10 11:37:00
6:56 AM,74.8,70.9,87,29.83,4.0,ESE,5.8,-,N/A,,Overcast,110,2013-05-10 11:56:00
7:56 AM,75.9,72.0,87,29.86,3.0,Calm,Calm,-,N/A,,Overcast,0,2013-05-10 12:56:00
8:24 AM,75.2,71.6,89,29.90,2.5,Calm,Calm,-,N/A,,Overcast,0,2013-05-10 13:24:00
8:56 AM,75.9,72.0,87,29.87,2.0,Calm,Calm,-,N/A,,Overcast,0,2013-05-10 13:56:00
9:03 AM,75.2,71.6,89,29.91,1.8,Calm,Calm,-,N/A,,Overcast,0,2013-05-10 14:03:00
9:13 AM,75.2,71.6,89,29.91,2.0,Calm,Calm,-,N/A,,Overcast,0,2013-05-10 14:13:00
9:21 AM,75.2,71.6,89,29.91,2.0,Calm,Calm,-,N/A,,Overcast,0,2013-05-10 14:21:00
9:56 AM,75.9,72.0,87,29.89,3.0,NE,5.8,-,N/A,,Mostly Cloudy,40,2013-05-10 14:56:00
10:20 AM,75.2,71.6,89,29.94,1.8,NNE,10.4,-,N/A,,Overcast,30,2013-05-10 15:20:00
10:33 AM,75.2,73.4,94,29.94,1.2,NNE,11.5,-,N/A,,Overcast,30,2013-05-10 15:33:00
10:41 AM,75.2,73.4,94,29.94,1.2,NNE,12.7,-,N/A,,Overcast,30,2013-05-10 15:41:00
10:45 AM,75.2,73.4,94,29.94,1.5,NE,10.4,-,N/A,,Overcast,40,2013-05-10 15:45:00
10:56 AM,75.9,72.9,90,29.90,1.8,ENE,8.1,-,N/A,,Mostly Cloudy,60,2013-05-10 15:56:00
11:01 AM,77.0,73.4,89,29.93,2.5,ENE,6.9,-,N/A,,Scattered Clouds,70,2013-05-10 16:01:00
11:12 AM,78.8,71.6,78,29.93,3.0,Calm,Calm,-,N/A,,Haze,0,2013-05-10 16:12:00
11:35 AM,78.8,71.6,78,29.93,4.0,ESE,4.6,-,N/A,,Haze,110,2013-05-10 16:35:00
11:56 AM,79.9,70.9,74,29.90,4.0,ESE,4.6,-,N/A,,Haze,110,2013-05-10 16:56:00
12:30 PM,80.6,71.6,74,29.92,5.0,ENE,9.2,-,N/A,,Haze,70,2013-05-10 17:30:00
12:56 PM,83.8,70.9,65,29.88,5.0,ENE,4.6,-,N/A,,Haze,70,2013-05-10 17:56:00
1:56 PM,86.0,70.0,59,29.85,5.0,Calm,Calm,-,N/A,,Haze,0,2013-05-10 18:56:00
2:56 PM,90.0,68.0,48,29.82,9.0,NE,5.8,-,N/A,,Clear,50,2013-05-10 19:56:00
3:56 PM,93.9,65.8,39,29.78,10.0,East,9.2,-,N/A,,Clear,100,2013-05-10 20:56:00
4:56 PM,95.9,63.9,35,29.75,10.0,East,10.4,-,N/A,,Unknown,80,2013-05-10 21:56:00
5:56 PM,95.9,61.0,31,29.73,10.0,East,6.9,-,N/A,,Clear,90,2013-05-10 22:56:00
6:56 PM,90.9,66.9,45,29.75,10.0,East,17.3,25.3,N/A,,Clear,90,2013-05-10 23:56:00
7:56 PM,88.0,64.9,46,29.81,10.0,East,13.8,-,N/A,,Clear,90,2013-05-11 00:56:00
8:56 PM,84.9,66.9,55,29.83,10.0,East,11.5,-,N/A,,Clear,90,2013-05-11 01:56:00
9:56 PM,81.9,68.9,65,29.84,10.0,East,21.9,28.8,N/A,,Mostly Cloudy,90,2013-05-11 02:56:00
10:24 PM,80.6,69.8,70,29.87,10.0,East,21.9,32.2,N/A,,Clear,80,2013-05-11 03:24:00
10:33 PM,78.8,69.8,74,29.87,8.0,East,21.9,31.1,0.01,Rain-Thunderstorm,Thunderstorms and Rain,80,2013-05-11 03:33:00
10:56 PM,75.9,70.9,84,29.90,4.0,ENE,17.3,-,N/A,Rain-Thunderstorm,Thunderstorms and Rain,60,2013-05-11 03:56:00
11:56 PM,-9999,-9999,N/A,-9999,-9999.0,North,-9999.0,-,N/A,Thunderstorm,Thunderstorm,0,2013-05-11 04:56:00